Location: Arbon
(43.0005°N, 0.7472°E)
Time: 03:34:08
(UTC+00:00)

Cosmos 1328 - Pass Details

Date: 07 August 2020
Orbit: 536 x 547 km, 82.5° (Epoch: 27 September)

Event Time Altitude Azimuth Distance (km) Brightness Sun altitude
Rises 03:53:45 0° 351° (N) 2,719 7.7 -10.6°
Reaches altitude 10° 03:55:55 10° 352° (N) 1,823 6.8 -10.2°
Maximum altitude 03:59:56 89° 81° (E) 553 3.8 -9.6°
Drops below altitude 10° 04:03:55 10° 173° (S) 1,813 6.2 -9.0°
Sets 04:06:04 0° 173° (S) 2,702 7.1 -8.7°
